This demonstration page uses our WeatherBlox Daily Observations layout. Learn more.

Hourly Observations for August 1, 2019

Temp ( °F °C ) Dew Point ( °F °C ) Humidity (%) Winds ( mph kmh ) Pressure ( in mb ) Visibility ( mi km ) Precip ( " mm )
12:15 am 00:15 Clear 68 20 68 20 100 100 Calm 30.09 1019 10 16.09344 0 0
12:35 am 00:35 Clear 68 20 68 20 100 100 N 5 7 30.09 1019 10 16.09344 0 0
12:55 am 00:55 Clear 68 20 68 20 100 100 NNW 3 6 30.09 1019 10 16.09344 0 0
1:15 am 01:15 Clear 68 20 68 20 100 100 Calm 30.09 1019 10 16.09344 0 0
1:35 am 01:35 Clear 66 19 66 19 100 100 Calm 30.09 1019 10 16.09344 0 0
1:55 am 01:55 Clear 66 19 66 19 100 100 Calm 30.09 1019 10 16.09344 0 0
2:15 am 02:15 Clear 66 19 66 19 100 100 Calm 30.09 1019 10 16.09344 0 0
2:35 am 02:35 Clear 64 18 64 18 100 100 Calm 30.09 1019 10 16.09344 0 0
2:55 am 02:55 Clear 64 18 64 18 100 100 W 5 7 30.09 1019 10 16.09344 0 0
3:15 am 03:15 Clear 64 18 64 18 100 100 W 3 6 30.09 1019 10 16.09344 0 0
3:35 am 03:35 Clear 64 18 64 18 100 100 SW 3 6 30.09 1019 10 16.09344 0 0
3:55 am 03:55 Clear 64 18 64 18 100 100 Calm 30.09 1019 10 16.09344 0 0
4:15 am 04:15 Clear 64 18 64 18 100 100 Calm 30.09 1019 10 16.09344 0 0
4:35 am 04:35 Clear 64 18 64 18 100 100 Calm 30.09 1019 10 16.09344 0 0
4:55 am 04:55 Clear 63 17 63 17 100 100 Calm 30.09 1019 10 16.09344 0 0
5:15 am 05:15 Clear 63 17 63 17 100 100 N 5 7 30.09 1019 10 16.09344 0 0
5:35 am 05:35 Clear 63 17 63 17 100 100 N 3 6 30.09 1019 10 16.09344 0 0
5:55 am 05:55 Clear 63 17 63 17 100 100 N 3 6 30.09 1019 10 16.09344 0 0
6:15 am 06:15 Sunny 63 17 63 17 100 100 Calm 30.09 1019 10 16.09344 0 0
6:35 am 06:35 Sunny 63 17 63 17 100 100 Calm 30.09 1019 10 16.09344 0 0
6:55 am 06:55 Sunny 63 17 63 17 100 100 Calm 30.09 1019 10 16.09344 0 0
7:15 am 07:15 Sunny 64 18 64 18 100 100 Calm 30.09 1019 10 16.09344 0 0
7:35 am 07:35 Sunny 66 19 64 18 94 94 Calm 30.09 1019 10 16.09344 0 0
7:55 am 07:55 Sunny 68 20 66 19 94 94 Calm 30.09 1019 10 16.09344 0 0
8:15 am 08:15 Sunny 70 21 66 19 88 88 Calm 30.09 1019 10 16.09344 0 0
8:35 am 08:35 Sunny 70 21 68 20 94 94 Calm 30.12 1020 10 16.09344 0 0
8:55 am 08:55 Sunny 72 22 68 20 88 88 Calm 30.12 1020 10 16.09344 0 0
9:15 am 09:15 Sunny 73 23 68 20 83 83 Calm 30.12 1020 10 16.09344 0 0
9:35 am 09:35 Sunny 77 25 68 20 74 74 NW 3 6 30.12 1020 10 16.09344 0 0
9:55 am 09:55 Sunny 77 25 68 20 74 74 WNW 3 6 30.12 1020 10 16.09344 0 0
10:15 am 10:15 Sunny 77 25 68 20 74 74 Calm 30.12 1020 10 16.09344 0 0
10:35 am 10:35 Sunny 79 26 70 21 74 74 NNE 3 6 30.12 1020 10 16.09344 0 0
10:55 am 10:55 Sunny 79 26 70 21 74 74 NNE 5 7 30.12 1020 10 16.09344 0 0
11:15 am 11:15 Sunny 81 27 70 21 70 70 Calm 30.12 1020 10 16.09344 0 0
11:35 am 11:35 Sunny 81 27 70 21 70 70 NW 3 6 30.12 1020 10 16.09344 0 0
11:55 am 11:55 Partly Cloudy 82 28 72 22 70 70 NW 7 11 30.12 1020 10 16.09344 0 0
12:15 pm 12:15 Partly Cloudy 82 28 70 21 66 66 WNW 6 9 30.12 1020 10 16.09344 0 0
12:35 pm 12:35 Partly Cloudy 82 28 72 22 70 70 Calm 30.12 1020 10 16.09344 0 0
12:55 pm 12:55 Mostly Cloudy 82 28 70 21 66 66 N 3 6 30.12 1020 10 16.09344 0 0
1:15 pm 13:15 Mostly Cloudy 86 30 72 22 62 62 NNW 3 6 30.12 1020 10 16.09344 0 0
1:35 pm 13:35 Partly Cloudy 86 30 72 22 62 62 N 6 9 30.12 1020 10 16.09344 0 0
1:55 pm 13:55 Partly Cloudy 86 30 70 21 59 59 NNW 3 6 30.12 1020 10 16.09344 0 0
2:15 pm 14:15 Partly Cloudy 88 31 70 21 55 55 NNW 3 6 30.12 1020 10 16.09344 0 0
2:35 pm 14:35 Mostly Cloudy 88 31 70 21 55 55 NNW 6 9 30.09 1019 10 16.09344 0 0
2:55 pm 14:55 Partly Cloudy 90 32 70 21 52 52 NW 5 7 30.06 1018 10 16.09344 0 0
3:35 pm 15:35 Partly Cloudy 88 31 70 21 55 55 NW 5 7 30.09 1019 10 16.09344 0 0
3:55 pm 15:55 Partly Cloudy 90 32 68 20 49 49 NNW 5 7 30.06 1018 10 16.09344 0 0
4:15 pm 16:15 Sunny 90 32 64 18 43 43 NNW 7 11 30.03 1017 10 16.09344 0 0
4:35 pm 16:35 Sunny 90 32 66 19 46 46 NE 3 6 30.03 1017 10 16.09344 0 0
4:55 pm 16:55 Partly Cloudy 90 32 66 19 46 46 ENE 6 9 30.03 1017 10 16.09344 0 0
5:15 pm 17:15 Sunny 90 32 66 19 46 46 NE 7 11 30.03 1017 10 16.09344 0 0
5:35 pm 17:35 Sunny 88 31 64 18 46 46 NE 9 15 30.03 1017 10 16.09344 0 0
5:55 pm 17:55 Sunny 90 32 64 18 43 43 NE 3 6 30.03 1017 10 16.09344 0 0
6:15 pm 18:15 Sunny 88 31 70 21 55 55 NE 7 11 30.03 1017 10 16.09344 0 0
6:35 pm 18:35 Sunny 88 31 68 20 52 52 NE 7 11 30.03 1017 10 16.09344 0 0
6:55 pm 18:55 Sunny 86 30 70 21 59 59 NE 3 6 30.06 1018 10 16.09344 0 0
7:15 pm 19:15 Sunny 86 30 70 21 59 59 ENE 5 7 30.06 1018 10 16.09344 0 0
7:35 pm 19:35 Sunny 86 30 70 21 59 59 Calm 30.09 1019 10 16.09344 0 0
7:55 pm 19:55 Sunny 86 30 70 21 59 59 ESE 6 9 30.09 1019 10 16.09344 0 0
8:15 pm 20:15 Sunny 84 29 70 21 62 62 ESE 3 6 30.09 1019 10 16.09344 0 0
8:35 pm 20:35 Clear 82 28 70 21 66 66 ESE 5 7 30.09 1019 10 16.09344 0 0
8:55 pm 20:55 Clear 82 28 70 21 66 66 ESE 3 6 30.09 1019 10 16.09344 0 0
9:15 pm 21:15 Clear 82 28 70 21 66 66 SE 3 6 30.09 1019 10 16.09344 0 0
9:35 pm 21:35 Clear 81 27 70 21 70 70 S 5 7 30.09 1019 10 16.09344 0 0
9:55 pm 21:55 Clear 81 27 70 21 70 70 S 3 6 30.09 1019 10 16.09344 0 0
10:15 pm 22:15 Clear 81 27 70 21 70 70 SSE 5 7 30.12 1020 10 16.09344 0 0
10:35 pm 22:35 Clear 81 27 70 21 70 70 Calm 30.09 1019 10 16.09344 0 0
10:55 pm 22:55 Clear 81 27 70 21 70 70 SE 5 7 30.12 1020 10 16.09344 0 0
11:35 pm 23:35 Clear 79 26 70 21 74 74 Calm 30.12 1020 10 16.09344 0 0
11:55 pm 23:55 Clear 77 25 70 21 79 79 Calm 30.12 1020 10 16.09344 0 0

Powered by AerisWeather